Flag for U.S.A. Weather past 2 weeks in Odessa, Texas, U.S.A.

Now
71 °F

Overcast.


Feels Like: 72 °F
Forecast: 68 / 89 °F
Wind: N/A

Location: Odessa-Schlemeyer Field

Current Time: Jul 2, 2015 at 7:48:21 AM

Latest Report: Jul 2, 2015 at 6:53 AM


Visibility: 10 mi

Pressure: 29.87 "Hg

Humidity: 78%

Dew point: 64 °F

Location of OdessaLocation

Historic Weather in Odessa — Graph

°F

Odessa temperature yesterday

Maximum temperature yesterday: 89 °F (at 4:53 PM)
Minimum temperature yesterday: 69 °F (at 5:53 AM)
Average temperature yesterday: 79 °F

Past Weeks' High & Low Weather Summary

 TemperatureHumidityPressure
High95 °F (Jun 26, 5:53 PM)97% (Jun 30, 4:53 AM)30.18 "Hg (Jun 30, 4:53 AM)
Low63 °F (Jun 30, 4:53 AM)24% (Jun 29, 2:53 PM)29.80 "Hg (Jun 20, 6:53 PM)
Average80 °F56%29.94 "Hg
* Reported Jun 17 5:53 AM — Jul 2 5:53 AM, Odessa, Weather by CustomWeather, © 2015

Note: Actual official high and low records may vary slightly from our data, if they occured in-between our weather recording intervals... More about our weather records

Advertising

Odessa weather history for previous 24 hours

 ConditionsComfort  
Time TempWeatherWind HumidityBarometerVisibility
5:53 AM
Thu, Jul 2
73 °FOvercast.10 mph74%29.86 "Hg10 mi
4:53 AM73 °FOvercast.13 mph74%29.85 "Hg10 mi
3:53 AM73 °FOvercast.14 mph76%29.86 "Hg10 mi
2:53 AM73 °FPassing clouds.15 mph76%29.88 "Hg10 mi
1:53 AM74 °FClear.9 mph71%29.89 "Hg10 mi
12:53 AM74 °FClear.7 mph69%29.90 "Hg10 mi
11:53 PM
Wed, Jul 1
77 °FClear.10 mph62%29.89 "Hg10 mi
10:53 PM78 °FClear.12 mph60%29.88 "Hg9 mi
9:53 PM80 °FSunny.12 mph54%29.87 "Hg10 mi
8:53 PM83 °FSunny.10 mph50%29.85 "Hg10 mi
7:53 PM86 °FSunny.15 mph40%29.85 "Hg10 mi
6:53 PM88 °FSunny.15 mph39%29.85 "Hg10 mi
5:53 PM89 °FSunny.17 mph38%29.85 "Hg10 mi
4:53 PM89 °FSunny.13 mph39%29.86 "Hg10 mi
3:53 PM88 °FPassing clouds.17 mph42%29.88 "Hg10 mi
2:53 PM86 °FSunny.15 mph48%30.04 "Hg10 mi
1:53 PM84 °FPassing clouds.16 mph53%29.92 "Hg9 mi
12:53 PM82 °FPassing clouds.N/A56%29.93 "Hg9 mi
11:53 AM80 °FScattered clouds.13 mph60%29.94 "Hg9 mi
10:53 AM78 °FPassing clouds.13 mph64%29.95 "Hg8 mi
9:53 AM74 °FPassing clouds.14 mph74%29.96 "Hg8 mi
8:53 AM72 °FOvercast.18 mph76%29.97 "Hg9 mi
7:53 AM70 °FOvercast.14 mph81%29.96 "Hg9 mi
Weather by CustomWeather, © 2015

See weather overviewHow to use our weather pages